START_TIME,STEP,MOV.,P11,t_acc.,P23,t_acc.,P27,t_acc.,A4,t_acc.
1979-03-09 21:00:20.610 ,1,0,5.,4.8,0.,4.8,0.,4.8,0.,4.8
1979-03-09 21:00:25.410 ,1,0,4.,4.8,0.,4.8,0.,4.8,0.,4.8
1979-03-09 21:00:30.210 ,1,0,2.,4.8,0.,4.8,0.,4.8,0.,4.8
1979-03-09 21:00:35.010 ,1,0,2.,4.8,0.,4.8,0.,4.8,0.,4.8
1979-03-09 21:00:39.810 ,1,0,5.,4.8,0.,4.8,0.,4.8,0.,4.8
1979-03-09 21:00:44.610 ,0,0,4.,4.8,0.,4.8,0.,4.8,0.,4.8
1979-03-09 21:00:49.410 ,0,0,8.,4.8,0.,4.8,0.,4.8,0.,4.8
1979-03-09 21:00:54.210 ,0,0,4.,4.8,0.,4.8,0.,4.8,0.,4.8
1979-03-09 21:00:59.010 ,0,0,2.,4.8,0.,4.8,0.,4.8,0.,4.8
1979-03-09 21:01:03.810 ,0,0,4.,4.8,0.,4.8,0.,4.8,0.,4.8
1979-03-09 21:01:08.610 ,0,0,2.,4.8,0.,4.8,0.,4.8,0.,4.8
1979-03-09 21:01:13.410 ,0,0,4.,4.8,0.,4.8,0.,4.8,0.,4.8
1979-03-09 21:01:18.210 ,0,0,1.,4.8,0.,4.8,0.,4.8,0.,4.8
1979-03-09 21:01:23.010 ,0,0,6.,4.8,0.,4.8,0.,4.8,0.,4.8
1979-03-09 21:01:27.810 ,0,0,1.,4.8,0.,4.8,0.,4.8,0.,4.8
1979-03-09 21:01:32.610 ,1,0,3.,4.8,0.,4.8,0.,4.8,0.,4.8
1979-03-09 21:01:37.410 ,1,0,3.,4.8,0.,4.8,0.,4.8,0.,4.8
1979-03-09 21:01:42.210 ,1,0,2.,4.8,0.,4.8,0.,4.8,0.,4.8
1979-03-09 21:01:47.010 ,1,0,7.,4.8,0.,4.8,0.,4.8,0.,4.8
1979-03-09 21:01:51.810 ,1,0,7.,4.8,0.,4.8,0.,4.8,0.,4.8
1979-03-09 21:01:56.610 ,2,0,3.,4.8,0.,4.8,0.,4.8,0.,4.8
1979-03-09 21:02:01.410 ,2,0,2.,4.8,0.,4.8,0.,4.8,0.,4.8
1979-03-09 21:02:06.210 ,2,0,7.,4.8,0.,4.8,0.,4.8,0.,4.8
1979-03-09 21:02:11.010 ,2,0,2.,4.8,0.,4.8,0.,4.8,0.,4.8
1979-03-09 21:02:15.810 ,2,0,7.,4.8,0.,4.8,0.,4.8,0.,4.8
1979-03-09 21:02:20.610 ,3,0,4.,4.8,0.,4.8,0.,4.8,0.,4.8
1979-03-09 21:02:25.410 ,3,0,4.,4.8,0.,4.8,0.,4.8,0.,4.8
1979-03-09 21:02:30.210 ,3,0,7.,4.8,0.,4.8,0.,4.8,0.,4.8
1979-03-09 21:02:35.010 ,3,0,4.,4.8,0.,4.8,0.,4.8,0.,4.8
1979-03-09 21:02:39.810 ,3,0,1.,4.8,0.,4.8,0.,4.8,0.,4.8
1979-03-09 21:02:44.610 ,4,0,2.,4.8,0.,4.8,0.,4.8,0.,4.8
1979-03-09 21:02:49.410 ,4,0,4.,4.8,0.,4.8,0.,4.8,0.,4.8
1979-03-09 21:02:54.210 ,4,0,1.,4.8,0.,4.8,0.,4.8,0.,4.8
1979-03-09 21:02:59.010 ,4,0,5.,4.8,0.,4.8,0.,4.8,0.,4.8
1979-03-09 21:03:03.810 ,4,0,8.,4.8,0.,4.8,0.,4.8,0.,4.8
1979-03-09 21:03:08.610 ,5,0,6.,4.8,0.,4.8,0.,4.8,0.,4.8
1979-03-09 21:03:13.410 ,5,0,2.,4.8,0.,4.8,0.,4.8,0.,4.8
1979-03-09 21:03:18.210 ,5,0,2.,4.8,0.,4.8,0.,4.8,0.,4.8
1979-03-09 21:03:23.010 ,5,0,6.,4.8,0.,4.8,0.,4.8,0.,4.8
1979-03-09 21:03:27.810 ,5,0,2.,4.8,0.,4.8,0.,4.8,0.,4.8
1979-03-09 21:03:32.610 ,6,0,5.,4.8,0.,4.8,0.,4.8,0.,4.8
1979-03-09 21:03:37.410 ,6,0,3.,4.8,0.,4.8,0.,4.8,0.,4.8
1979-03-09 21:03:42.210 ,6,0,3.,4.8,0.,4.8,0.,4.8,0.,4.8
1979-03-09 21:03:47.010 ,6,0,5.,4.8,0.,4.8,0.,4.8,0.,4.8
1979-03-09 21:03:51.810 ,6,0,6.,4.8,0.,4.8,0.,4.8,0.,4.8
1979-03-09 21:03:56.610 ,7,0,2.,4.8,0.,4.8,0.,4.8,0.,4.8
1979-03-09 21:04:01.410 ,7,0,1.,4.8,0.,4.8,0.,4.8,0.,4.8
1979-03-09 21:04:06.210 ,7,0,1.,4.8,0.,4.8,0.,4.8,0.,4.8
1979-03-09 21:04:11.010 ,7,0,2.,4.8,0.,4.8,0.,4.8,0.,4.8
1979-03-09 21:04:15.810 ,7,0,2.,4.8,0.,4.8,0.,4.8,0.,4.8
1979-03-09 21:04:20.610 ,7,0,1.,4.8,0.,4.8,0.,4.8,0.,4.8
1979-03-09 21:04:25.410 ,7,0,0.,4.8,0.,4.8,0.,4.8,0.,4.8
1979-03-09 21:04:30.210 ,7,0,2.,4.8,0.,4.8,0.,4.8,0.,4.8
1979-03-09 21:04:35.010 ,7,0,6.,4.8,0.,4.8,0.,4.8,0.,4.8
1979-03-09 21:04:39.810 ,7,0,6.,4.8,0.,4.8,0.,4.8,0.,4.8
1979-03-09 21:04:44.610 ,6,0,3.,4.8,0.,4.8,0.,4.8,0.,4.8
1979-03-09 21:04:49.410 ,6,0,5.,4.8,0.,4.8,0.,4.8,0.,4.8
1979-03-09 21:04:54.210 ,6,0,6.,4.8,0.,4.8,0.,4.8,0.,4.8
1979-03-09 21:04:59.010 ,6,0,6.,4.8,0.,4.8,0.,4.8,0.,4.8
1979-03-09 21:05:03.810 ,6,0,2.,4.8,0.,4.8,0.,4.8,0.,4.8
1979-03-09 21:05:08.610 ,5,0,3.,4.8,0.,4.8,0.,4.8,0.,4.8
1979-03-09 21:05:13.410 ,5,0,4.,4.8,0.,4.8,0.,4.8,0.,4.8
1979-03-09 21:05:18.210 ,5,0,4.,4.8,0.,4.8,0.,4.8,0.,4.8
1979-03-09 21:05:23.010 ,5,0,4.,4.8,0.,4.8,0.,4.8,0.,4.8
1979-03-09 21:05:27.810 ,5,0,5.,4.8,0.,4.8,0.,4.8,0.,4.8
1979-03-09 21:05:32.610 ,4,0,5.,4.8,0.,4.8,0.,4.8,0.,4.8
1979-03-09 21:05:37.410 ,4,0,3.,4.8,0.,4.8,0.,4.8,0.,4.8
1979-03-09 21:05:42.210 ,4,0,4.,4.8,0.,4.8,0.,4.8,0.,4.8
1979-03-09 21:05:47.010 ,4,0,6.,4.8,0.,4.8,0.,4.8,0.,4.8
1979-03-09 21:05:51.810 ,4,0,1.,4.8,0.,4.8,0.,4.8,0.,4.8
1979-03-09 21:05:56.610 ,3,0,5.,4.8,0.,4.8,0.,4.8,0.,4.8
1979-03-09 21:06:01.410 ,3,0,2.,4.8,0.,4.8,0.,4.8,0.,4.8
1979-03-09 21:06:06.210 ,3,0,6.,4.8,0.,4.8,0.,4.8,0.,4.8
1979-03-09 21:06:11.010 ,3,0,4.,4.8,0.,4.8,0.,4.8,0.,4.8
1979-03-09 21:06:15.810 ,3,0,4.,4.8,0.,4.8,0.,4.8,0.,4.8
1979-03-09 21:06:20.610 ,2,0,4.,4.8,0.,4.8,0.,4.8,0.,4.8
1979-03-09 21:06:25.410 ,2,0,3.,4.8,0.,4.8,0.,4.8,0.,4.8
1979-03-09 21:06:30.210 ,2,0,5.,4.8,0.,4.8,0.,4.8,0.,4.8
1979-03-09 21:06:35.010 ,2,0,1.,4.8,0.,4.8,0.,4.8,0.,4.8
1979-03-09 21:06:39.810 ,2,0,5.,4.8,0.,4.8,0.,4.8,0.,4.8
1979-03-09 21:06:44.610 ,1,0,1.,4.8,0.,4.8,0.,4.8,0.,4.8
1979-03-09 21:06:49.410 ,1,0,9.,4.8,0.,4.8,0.,4.8,0.,4.8
1979-03-09 21:06:54.210 ,1,0,7.,4.8,0.,4.8,0.,4.8,0.,4.8
1979-03-09 21:06:59.010 ,1,0,6.,4.8,0.,4.8,0.,4.8,0.,4.8
1979-03-09 21:07:03.810 ,1,0,6.,4.8,0.,4.8,0.,4.8,0.,4.8
1979-03-09 21:07:08.610 ,0,0,3.,4.8,0.,4.8,0.,4.8,0.,4.8
1979-03-09 21:07:13.410 ,0,0,6.,4.8,0.,4.8,0.,4.8,0.,4.8
1979-03-09 21:07:18.210 ,0,0,4.,4.8,0.,4.8,0.,4.8,0.,4.8
1979-03-09 21:07:23.010 ,0,0,8.,4.8,0.,4.8,0.,4.8,0.,4.8
1979-03-09 21:07:27.810 ,0,0,3.,4.8,0.,4.8,0.,4.8,0.,4.8
1979-03-09 21:07:32.610 ,0,0,7.,4.8,0.,4.8,0.,4.8,0.,4.8
1979-03-09 21:07:37.410 ,0,0,7.,4.8,0.,4.8,0.,4.8,0.,4.8
1979-03-09 21:07:42.210 ,0,0,3.,4.8,0.,4.8,0.,4.8,0.,4.8
1979-03-09 21:07:47.010 ,0,0,4.,4.8,0.,4.8,0.,4.8,0.,4.8
1979-03-09 21:07:51.810 ,0,0,3.,4.8,0.,4.8,0.,4.8,0.,4.8
1979-03-09 21:07:56.610 ,1,0,1.,4.8,0.,4.8,0.,4.8,0.,4.8
1979-03-09 21:08:01.410 ,1,0,3.,4.8,0.,4.8,0.,4.8,0.,4.8
1979-03-09 21:08:06.210 ,1,0,6.,4.8,0.,4.8,0.,4.8,0.,4.8
1979-03-09 21:08:11.010 ,1,0,4.,4.8,0.,4.8,0.,4.8,0.,4.8
1979-03-09 21:08:15.810 ,1,0,5.,4.8,0.,4.8,0.,4.8,0.,4.8
1979-03-09 21:08:20.610 ,2,0,6.,4.8,0.,4.8,0.,4.8,0.,4.8
1979-03-09 21:08:25.410 ,2,0,3.,4.8,0.,4.8,0.,4.8,0.,4.8
1979-03-09 21:08:30.210 ,2,0,7.,4.8,0.,4.8,0.,4.8,0.,4.8
1979-03-09 21:08:35.010 ,2,0,5.,4.8,0.,4.8,0.,4.8,0.,4.8
1979-03-09 21:08:39.810 ,2,0,3.,4.8,0.,4.8,0.,4.8,0.,4.8
1979-03-09 21:08:44.610 ,3,0,6.,4.8,0.,4.8,0.,4.8,0.,4.8
1979-03-09 21:08:49.410 ,3,0,6.,4.8,0.,4.8,0.,4.8,0.,4.8
1979-03-09 21:08:54.210 ,3,0,5.,4.8,0.,4.8,0.,4.8,0.,4.8
1979-03-09 21:08:59.010 ,3,0,5.,4.8,0.,4.8,0.,4.8,0.,4.8
1979-03-09 21:09:03.810 ,3,0,4.,4.8,0.,4.8,0.,4.8,0.,4.8
1979-03-09 21:09:08.610 ,4,0,7.,4.8,0.,4.8,0.,4.8,0.,4.8
1979-03-09 21:09:13.410 ,4,0,2.,4.8,0.,4.8,0.,4.8,0.,4.8
1979-03-09 21:09:18.210 ,4,0,9.,4.8,0.,4.8,0.,4.8,0.,4.8
1979-03-09 21:09:23.010 ,4,0,3.,4.8,0.,4.8,0.,4.8,0.,4.8
1979-03-09 21:09:27.810 ,4,0,5.,4.8,0.,4.8,0.,4.8,0.,4.8
1979-03-09 21:09:32.610 ,5,0,9.,4.8,0.,4.8,0.,4.8,0.,4.8
1979-03-09 21:09:37.410 ,5,0,5.,4.8,0.,4.8,0.,4.8,0.,4.8
1979-03-09 21:09:42.210 ,5,0,2.,4.8,0.,4.8,0.,4.8,0.,4.8
1979-03-09 21:09:47.010 ,5,0,2.,4.8,0.,4.8,0.,4.8,0.,4.8
1979-03-09 21:09:51.810 ,5,0,9.,4.8,0.,4.8,0.,4.8,0.,4.8
1979-03-09 21:09:56.610 ,6,0,7.,4.8,0.,4.8,0.,4.8,0.,4.8
1979-03-09 21:10:01.410 ,6,0,3.,4.8,0.,4.8,0.,4.8,0.,4.8
1979-03-09 21:10:06.210 ,6,0,4.,4.8,0.,4.8,0.,4.8,0.,4.8
1979-03-09 21:10:11.010 ,6,0,5.,4.8,0.,4.8,0.,4.8,0.,4.8
1979-03-09 21:10:15.810 ,6,0,2.,4.8,0.,4.8,0.,4.8,0.,4.8
1979-03-09 21:10:20.610 ,7,0,4.,4.8,0.,4.8,0.,4.8,0.,4.8
1979-03-09 21:10:25.410 ,7,0,5.,4.8,0.,4.8,0.,4.8,0.,4.8
1979-03-09 21:10:30.210 ,7,0,2.,4.8,0.,4.8,0.,4.8,0.,4.8
1979-03-09 21:10:35.010 ,7,0,1.,4.8,0.,4.8,0.,4.8,0.,4.8
1979-03-09 21:10:39.810 ,7,0,2.,4.8,0.,4.8,0.,4.8,0.,4.8
1979-03-09 21:10:44.610 ,7,0,3.,4.8,0.,4.8,0.,4.8,0.,4.8
1979-03-09 21:10:49.410 ,7,0,2.,4.8,0.,4.8,0.,4.8,0.,4.8
1979-03-09 21:10:54.210 ,7,0,6.,4.8,0.,4.8,0.,4.8,0.,4.8
1979-03-09 21:10:59.010 ,7,0,2.,4.8,0.,4.8,0.,4.8,0.,4.8
1979-03-09 21:11:03.810 ,7,0,3.,4.8,0.,4.8,0.,4.8,0.,4.8
1979-03-09 21:11:08.610 ,6,0,3.,4.8,0.,4.8,0.,4.8,0.,4.8
1979-03-09 21:11:13.410 ,6,0,1.,4.8,0.,4.8,0.,4.8,0.,4.8
1979-03-09 21:11:18.210 ,6,0,5.,4.8,0.,4.8,0.,4.8,0.,4.8
1979-03-09 21:11:23.010 ,6,0,1.,4.8,0.,4.8,0.,4.8,0.,4.8
1979-03-09 21:11:27.810 ,6,0,9.,4.8,0.,4.8,0.,4.8,0.,4.8
1979-03-09 21:11:32.610 ,5,0,2.,4.8,0.,4.8,0.,4.8,0.,4.8
1979-03-09 21:11:37.410 ,5,0,0.,4.8,0.,4.8,0.,4.8,0.,4.8
1979-03-09 21:11:42.210 ,5,0,4.,4.8,0.,4.8,0.,4.8,0.,4.8
1979-03-09 21:11:47.010 ,5,0,2.,4.8,0.,4.8,0.,4.8,0.,4.8
1979-03-09 21:11:51.810 ,5,0,5.,4.8,0.,4.8,0.,4.8,0.,4.8
1979-03-09 21:11:56.610 ,4,0,3.,4.8,0.,4.8,0.,4.8,0.,4.8
1979-03-09 21:12:01.410 ,4,0,4.,4.8,0.,4.8,0.,4.8,0.,4.8
1979-03-09 21:12:06.210 ,4,0,6.,4.8,0.,4.8,0.,4.8,0.,4.8
1979-03-09 21:12:11.010 ,4,0,7.,4.8,0.,4.8,0.,4.8,0.,4.8
1979-03-09 21:12:15.810 ,4,0,5.,4.8,0.,4.8,0.,4.8,0.,4.8
1979-03-09 21:12:20.610 ,3,0,6.,4.8,0.,4.8,0.,4.8,0.,4.8
1979-03-09 21:12:25.410 ,3,0,5.,4.8,0.,4.8,0.,4.8,0.,4.8
1979-03-09 21:12:30.210 ,3,0,7.,4.8,0.,4.8,0.,4.8,0.,4.8
1979-03-09 21:12:35.010 ,3,0,1.,4.8,0.,4.8,0.,4.8,0.,4.8
1979-03-09 21:12:39.810 ,3,0,2.,4.8,0.,4.8,0.,4.8,0.,4.8
1979-03-09 21:12:44.610 ,2,0,9.,4.8,0.,4.8,0.,4.8,0.,4.8
1979-03-09 21:12:49.410 ,2,0,8.,4.8,0.,4.8,0.,4.8,0.,4.8
1979-03-09 21:12:54.210 ,2,0,1.,4.8,0.,4.8,0.,4.8,0.,4.8
1979-03-09 21:12:59.010 ,2,0,3.,4.8,0.,4.8,0.,4.8,0.,4.8
1979-03-09 21:13:03.810 ,2,0,2.,4.8,0.,4.8,0.,4.8,0.,4.8
1979-03-09 21:13:08.610 ,1,0,2.,4.8,0.,4.8,0.,4.8,0.,4.8
1979-03-09 21:13:13.410 ,1,0,1.,4.8,0.,4.8,0.,4.8,0.,4.8
1979-03-09 21:13:18.210 ,1,0,3.,4.8,0.,4.8,0.,4.8,0.,4.8
1979-03-09 21:13:23.010 ,1,0,3.,4.8,0.,4.8,0.,4.8,0.,4.8
1979-03-09 21:13:27.810 ,1,0,5.,4.8,0.,4.8,0.,4.8,0.,4.8
1979-03-09 21:13:32.610 ,0,0,4.,4.8,0.,4.8,0.,4.8,0.,4.8
1979-03-09 21:13:37.410 ,0,0,4.,4.8,0.,4.8,0.,4.8,0.,4.8
1979-03-09 21:13:42.210 ,0,0,4.,4.8,0.,4.8,0.,4.8,0.,4.8
1979-03-09 21:13:47.010 ,0,0,6.,4.8,0.,4.8,0.,4.8,0.,4.8
1979-03-09 21:13:51.810 ,0,0,3.,4.8,0.,4.8,0.,4.8,0.,4.8
1979-03-09 21:13:56.610 ,0,0,4.,4.8,0.,4.8,0.,4.8,0.,4.8
1979-03-09 21:14:01.410 ,0,0,4.,4.8,0.,4.8,0.,4.8,0.,4.8
1979-03-09 21:14:06.210 ,0,0,6.,4.8,0.,4.8,0.,4.8,0.,4.8
1979-03-09 21:14:11.010 ,0,0,2.,4.8,0.,4.8,0.,4.8,0.,4.8
1979-03-09 21:14:15.810 ,0,0,5.,4.8,0.,4.8,0.,4.8,0.,4.8
1979-03-09 21:14:20.610 ,1,0,8.,4.8,0.,4.8,0.,4.8,0.,4.8
1979-03-09 21:14:25.410 ,1,0,6.,4.8,0.,4.8,0.,4.8,0.,4.8
1979-03-09 21:14:30.210 ,1,0,3.,4.8,0.,4.8,0.,4.8,0.,4.8
1979-03-09 21:14:35.010 ,1,0,7.,4.8,0.,4.8,0.,4.8,0.,4.8
1979-03-09 21:14:39.810 ,1,0,2.,4.8,0.,4.8,0.,4.8,0.,4.8
1979-03-09 21:14:44.610 ,2,0,7.,4.8,0.,4.8,0.,4.8,0.,4.8
1979-03-09 21:14:49.410 ,2,0,6.,4.8,0.,4.8,0.,4.8,0.,4.8
1979-03-09 21:14:54.210 ,2,0,1.,4.8,0.,4.8,0.,4.8,0.,4.8
1979-03-09 21:14:59.010 ,2,0,0.,4.8,0.,4.8,0.,4.8,0.,4.8
1979-03-09 21:15:03.810 ,2,0,3.,4.8,0.,4.8,0.,4.8,0.,4.8
1979-03-09 21:15:08.610 ,3,0,6.,4.8,0.,4.8,0.,4.8,0.,4.8
1979-03-09 21:15:13.410 ,3,0,4.,4.8,0.,4.8,0.,4.8,0.,4.8
1979-03-09 21:15:18.210 ,3,0,4.,4.8,0.,4.8,0.,4.8,0.,4.8
1979-03-09 21:15:23.010 ,3,0,5.,4.8,0.,4.8,0.,4.8,0.,4.8
1979-03-09 21:15:27.810 ,3,0,6.,4.8,0.,4.8,0.,4.8,0.,4.8
1979-03-09 21:15:32.610 ,4,0,5.,4.8,0.,4.8,0.,4.8,0.,4.8
1979-03-09 21:15:37.410 ,4,0,6.,4.8,0.,4.8,0.,4.8,0.,4.8
1979-03-09 21:15:42.210 ,4,0,16.,4.8,0.,4.8,0.,4.8,0.,4.8
1979-03-09 21:15:47.010 ,4,0,17.,4.8,0.,4.8,0.,4.8,0.,4.8
1979-03-09 21:15:51.810 ,4,0,7.,4.8,0.,4.8,0.,4.8,0.,4.8
1979-03-09 21:15:56.610 ,5,0,8.,4.8,0.,4.8,0.,4.8,0.,4.8
1979-03-09 21:16:01.410 ,5,0,12.,4.8,0.,4.8,0.,4.8,0.,4.8
1979-03-09 21:16:06.210 ,5,0,7.,4.8,0.,4.8,0.,4.8,0.,4.8
1979-03-09 21:16:11.010 ,5,0,11.,4.8,0.,4.8,0.,4.8,0.,4.8
1979-03-09 21:16:15.810 ,5,0,8.,4.8,0.,4.8,0.,4.8,0.,4.8
1979-03-09 21:16:20.610 ,6,0,7.,4.8,0.,4.8,0.,4.8,0.,4.8
1979-03-09 21:16:25.410 ,6,0,7.,4.8,0.,4.8,0.,4.8,0.,4.8
1979-03-09 21:16:30.210 ,6,0,8.,4.8,0.,4.8,0.,4.8,0.,4.8
1979-03-09 21:16:35.010 ,6,0,10.,4.8,0.,4.8,0.,4.8,1.,4.8
1979-03-09 21:16:39.810 ,6,0,10.,4.8,0.,4.8,0.,4.8,0.,4.8
1979-03-09 21:16:44.610 ,7,0,8.,4.8,0.,4.8,0.,4.8,0.,4.8
1979-03-09 21:16:49.410 ,7,0,5.,4.8,0.,4.8,0.,4.8,0.,4.8
1979-03-09 21:16:54.210 ,7,0,5.,4.8,0.,4.8,0.,4.8,0.,4.8
1979-03-09 21:16:59.010 ,7,0,5.,4.8,0.,4.8,0.,4.8,0.,4.8
1979-03-09 21:17:03.810 ,7,0,2.,4.8,0.,4.8,0.,4.8,0.,4.8
1979-03-09 21:17:08.610 ,7,0,10.,4.8,0.,4.8,0.,4.8,0.,4.8
1979-03-09 21:17:13.410 ,7,0,3.,4.8,0.,4.8,0.,4.8,0.,4.8
1979-03-09 21:17:18.210 ,7,0,1.,4.8,0.,4.8,0.,4.8,0.,4.8
1979-03-09 21:17:23.010 ,7,0,5.,4.8,0.,4.8,0.,4.8,0.,4.8
1979-03-09 21:17:27.810 ,7,0,4.,4.8,0.,4.8,0.,4.8,0.,4.8
1979-03-09 21:17:32.610 ,6,0,7.,4.8,0.,4.8,0.,4.8,0.,4.8
1979-03-09 21:17:37.410 ,6,0,2.,4.8,0.,4.8,0.,4.8,0.,4.8
1979-03-09 21:17:42.210 ,6,0,4.,4.8,0.,4.8,0.,4.8,0.,4.8
1979-03-09 21:17:47.010 ,6,0,7.,4.8,0.,4.8,0.,4.8,0.,4.8
1979-03-09 21:17:51.810 ,6,0,12.,4.8,0.,4.8,0.,4.8,0.,4.8
1979-03-09 21:17:56.610 ,5,0,7.,4.8,0.,4.8,0.,4.8,0.,4.8
1979-03-09 21:18:01.410 ,5,0,13.,4.8,0.,4.8,0.,4.8,0.,4.8
1979-03-09 21:18:06.210 ,5,0,7.,4.8,0.,4.8,0.,4.8,0.,4.8
1979-03-09 21:18:11.010 ,5,0,12.,4.8,0.,4.8,0.,4.8,0.,4.8
1979-03-09 21:18:15.810 ,5,0,12.,4.8,0.,4.8,0.,4.8,0.,4.8
1979-03-09 21:18:20.610 ,4,0,6.,4.8,0.,4.8,0.,4.8,0.,4.8
1979-03-09 21:18:25.410 ,4,0,9.,4.8,0.,4.8,0.,4.8,0.,4.8
1979-03-09 21:18:30.210 ,4,0,8.,4.8,0.,4.8,0.,4.8,0.,4.8
1979-03-09 21:18:35.010 ,4,0,11.,4.8,0.,4.8,0.,4.8,0.,4.8
1979-03-09 21:18:39.810 ,4,0,8.,4.8,0.,4.8,0.,4.8,0.,4.8
1979-03-09 21:18:44.610 ,3,0,10.,4.8,0.,4.8,0.,4.8,0.,4.8
1979-03-09 21:18:49.410 ,3,0,13.,4.8,0.,4.8,0.,4.8,0.,4.8
1979-03-09 21:18:54.210 ,3,0,12.,4.8,0.,4.8,0.,4.8,0.,4.8
1979-03-09 21:18:59.010 ,3,0,12.,4.8,0.,4.8,0.,4.8,0.,4.8
1979-03-09 21:19:03.810 ,3,0,13.,4.8,0.,4.8,0.,4.8,0.,4.8
1979-03-09 21:19:08.610 ,2,0,13.,4.8,0.,4.8,0.,4.8,0.,4.8
1979-03-09 21:19:13.410 ,2,0,11.,4.8,0.,4.8,0.,4.8,0.,4.8
1979-03-09 21:19:18.210 ,2,0,13.,4.8,0.,4.8,0.,4.8,0.,4.8
1979-03-09 21:19:23.010 ,2,0,10.,4.8,0.,4.8,0.,4.8,0.,4.8
1979-03-09 21:19:27.810 ,2,0,13.,4.8,0.,4.8,0.,4.8,0.,4.8
1979-03-09 21:19:32.610 ,1,0,9.,4.8,0.,4.8,0.,4.8,0.,4.8
1979-03-09 21:19:37.410 ,1,0,13.,4.8,0.,4.8,0.,4.8,0.,4.8
1979-03-09 21:19:42.210 ,1,0,16.,4.8,0.,4.8,0.,4.8,0.,4.8
1979-03-09 21:19:47.010 ,1,0,17.,4.8,0.,4.8,0.,4.8,0.,4.8
1979-03-09 21:19:51.810 ,1,0,10.,4.8,0.,4.8,0.,4.8,0.,4.8
1979-03-09 21:19:56.610 ,0,0,13.,4.8,0.,4.8,0.,4.8,0.,4.8
1979-03-09 21:20:01.410 ,0,0,9.,4.8,0.,4.8,0.,4.8,0.,4.8
1979-03-09 21:20:06.210 ,0,0,14.,4.8,0.,4.8,0.,4.8,0.,4.8
1979-03-09 21:20:11.010 ,0,0,10.,4.8,0.,4.8,0.,4.8,0.,4.8
1979-03-09 21:20:15.810 ,0,0,6.,4.8,0.,4.8,0.,4.8,0.,4.8
1979-03-09 21:20:20.610 ,0,0,7.,4.8,0.,4.8,0.,4.8,0.,4.8
1979-03-09 21:20:25.410 ,0,0,12.,4.8,0.,4.8,0.,4.8,0.,4.8
1979-03-09 21:20:30.210 ,0,0,9.,4.8,0.,4.8,0.,4.8,0.,4.8
1979-03-09 21:20:35.010 ,0,0,15.,4.8,0.,4.8,0.,4.8,0.,4.8
1979-03-09 21:20:39.810 ,0,0,13.,4.8,0.,4.8,0.,4.8,0.,4.8
1979-03-09 21:20:44.610 ,1,0,18.,4.8,0.,4.8,0.,4.8,0.,4.8
1979-03-09 21:20:49.410 ,1,0,14.,4.8,0.,4.8,0.,4.8,0.,4.8
1979-03-09 21:20:54.210 ,1,0,10.,4.8,0.,4.8,0.,4.8,0.,4.8
1979-03-09 21:20:59.010 ,1,0,8.,4.8,0.,4.8,0.,4.8,0.,4.8
1979-03-09 21:21:03.810 ,1,0,14.,4.8,0.,4.8,0.,4.8,0.,4.8
1979-03-09 21:21:08.610 ,2,0,10.,4.8,0.,4.8,0.,4.8,1.,4.8
1979-03-09 21:21:13.410 ,2,0,12.,4.8,0.,4.8,0.,4.8,0.,4.8
1979-03-09 21:21:18.210 ,2,0,8.,4.8,0.,4.8,0.,4.8,0.,4.8
1979-03-09 21:21:23.010 ,2,0,13.,4.8,0.,4.8,0.,4.8,0.,4.8
1979-03-09 21:21:27.810 ,2,0,10.,4.8,0.,4.8,0.,4.8,0.,4.8
1979-03-09 21:21:32.610 ,3,0,7.,4.8,0.,4.8,0.,4.8,0.,4.8
1979-03-09 21:21:37.410 ,3,0,8.,4.8,0.,4.8,0.,4.8,0.,4.8
1979-03-09 21:21:42.210 ,3,0,15.,4.8,0.,4.8,0.,4.8,0.,4.8
1979-03-09 21:21:47.010 ,3,0,11.,4.8,0.,4.8,0.,4.8,0.,4.8
1979-03-09 21:21:51.810 ,3,0,11.,4.8,0.,4.8,0.,4.8,0.,4.8
1979-03-09 21:21:56.610 ,4,0,13.,4.8,0.,4.8,0.,4.8,0.,4.8
1979-03-09 21:22:01.410 ,4,0,9.,4.8,0.,4.8,0.,4.8,0.,4.8
1979-03-09 21:22:06.210 ,4,0,15.,4.8,0.,4.8,0.,4.8,0.,4.8
1979-03-09 21:22:11.010 ,4,0,11.,4.8,0.,4.8,0.,4.8,0.,4.8
1979-03-09 21:22:15.810 ,4,0,7.,4.8,0.,4.8,0.,4.8,0.,4.8
1979-03-09 21:22:20.610 ,5,0,17.,4.8,0.,4.8,0.,4.8,0.,4.8
1979-03-09 21:22:25.410 ,5,0,12.,4.8,0.,4.8,0.,4.8,0.,4.8
1979-03-09 21:22:30.210 ,5,0,20.,4.8,0.,4.8,0.,4.8,0.,4.8
1979-03-09 21:22:35.010 ,5,0,23.,4.8,0.,4.8,0.,4.8,0.,4.8
1979-03-09 21:22:39.810 ,5,0,12.,4.8,0.,4.8,0.,4.8,0.,4.8
1979-03-09 21:22:44.610 ,6,0,13.,4.8,0.,4.8,0.,4.8,0.,4.8
1979-03-09 21:22:49.410 ,6,0,11.,4.8,0.,4.8,0.,4.8,0.,4.8
1979-03-09 21:22:54.210 ,6,0,22.,4.8,0.,4.8,0.,4.8,0.,4.8
1979-03-09 21:22:59.010 ,6,0,22.,4.8,0.,4.8,0.,4.8,0.,4.8
1979-03-09 21:23:03.810 ,6,0,28.,4.8,0.,4.8,0.,4.8,0.,4.8
1979-03-09 21:23:08.610 ,7,0,20.,4.8,0.,4.8,0.,4.8,0.,4.8
1979-03-09 21:23:13.410 ,7,0,21.,4.8,0.,4.8,0.,4.8,0.,4.8
1979-03-09 21:23:18.210 ,7,0,17.,4.8,0.,4.8,0.,4.8,0.,4.8
1979-03-09 21:23:23.010 ,7,0,18.,4.8,0.,4.8,0.,4.8,0.,4.8
1979-03-09 21:23:27.810 ,7,0,13.,4.8,0.,4.8,0.,4.8,0.,4.8
1979-03-09 21:23:32.610 ,7,0,18.,4.8,0.,4.8,0.,4.8,0.,4.8
1979-03-09 21:23:37.410 ,7,0,12.,4.8,0.,4.8,0.,4.8,0.,4.8
1979-03-09 21:23:42.210 ,7,0,18.,4.8,0.,4.8,0.,4.8,0.,4.8
1979-03-09 21:23:47.010 ,7,0,16.,4.8,0.,4.8,0.,4.8,0.,4.8
1979-03-09 21:23:51.810 ,7,0,10.,4.8,0.,4.8,0.,4.8,0.,4.8
1979-03-09 21:23:56.610 ,6,0,13.,4.8,0.,4.8,0.,4.8,0.,4.8
1979-03-09 21:24:01.410 ,6,0,12.,4.8,0.,4.8,0.,4.8,0.,4.8
1979-03-09 21:24:06.210 ,6,0,22.,4.8,0.,4.8,0.,4.8,0.,4.8
1979-03-09 21:24:11.010 ,6,0,25.,4.8,0.,4.8,0.,4.8,0.,4.8
1979-03-09 21:24:15.810 ,6,0,15.,4.8,0.,4.8,0.,4.8,0.,4.8
1979-03-09 21:24:20.610 ,5,0,37.,4.8,0.,4.8,0.,4.8,0.,4.8
1979-03-09 21:24:25.410 ,5,0,40.,4.8,0.,4.8,0.,4.8,0.,4.8
1979-03-09 21:24:30.210 ,5,0,31.,4.8,0.,4.8,0.,4.8,0.,4.8
1979-03-09 21:24:35.010 ,5,0,40.,4.8,0.,4.8,0.,4.8,0.,4.8
1979-03-09 21:24:39.810 ,5,0,17.,4.8,0.,4.8,0.,4.8,0.,4.8
1979-03-09 21:24:44.610 ,4,0,34.,4.8,0.,4.8,0.,4.8,1.,4.8
1979-03-09 21:24:49.410 ,4,0,31.,4.8,0.,4.8,0.,4.8,0.,4.8
1979-03-09 21:24:54.210 ,4,0,35.,4.8,0.,4.8,0.,4.8,0.,4.8
1979-03-09 21:24:59.010 ,4,0,23.,4.8,0.,4.8,0.,4.8,0.,4.8
1979-03-09 21:25:03.810 ,4,0,28.,4.8,0.,4.8,0.,4.8,0.,4.8
1979-03-09 21:25:08.610 ,3,0,41.,4.8,0.,4.8,0.,4.8,0.,4.8
1979-03-09 21:25:13.410 ,3,0,22.,4.8,0.,4.8,0.,4.8,0.,4.8
1979-03-09 21:25:18.210 ,3,0,24.,4.8,0.,4.8,0.,4.8,0.,4.8
1979-03-09 21:25:23.010 ,3,0,39.,4.8,0.,4.8,0.,4.8,0.,4.8
1979-03-09 21:25:27.810 ,3,0,29.,4.8,0.,4.8,0.,4.8,0.,4.8
1979-03-09 21:25:32.610 ,2,0,17.,4.8,0.,4.8,0.,4.8,0.,4.8
1979-03-09 21:25:37.410 ,2,0,30.,4.8,0.,4.8,0.,4.8,0.,4.8
1979-03-09 21:25:42.210 ,2,0,23.,4.8,0.,4.8,0.,4.8,0.,4.8
1979-03-09 21:25:47.010 ,2,0,25.,4.8,0.,4.8,0.,4.8,0.,4.8
1979-03-09 21:25:51.810 ,2,0,29.,4.8,0.,4.8,0.,4.8,0.,4.8
1979-03-09 21:25:56.610 ,1,0,25.,4.8,0.,4.8,0.,4.8,0.,4.8
1979-03-09 21:26:01.410 ,1,0,26.,4.8,0.,4.8,0.,4.8,0.,4.8
1979-03-09 21:26:06.210 ,1,0,29.,4.8,0.,4.8,0.,4.8,0.,4.8
1979-03-09 21:26:11.010 ,1,0,33.,4.8,0.,4.8,0.,4.8,0.,4.8
1979-03-09 21:26:15.810 ,1,0,29.,4.8,0.,4.8,0.,4.8,0.,4.8
1979-03-09 21:26:20.610 ,0,0,31.,4.8,0.,4.8,0.,4.8,0.,4.8
1979-03-09 21:26:25.410 ,0,0,30.,4.8,0.,4.8,0.,4.8,0.,4.8
1979-03-09 21:26:30.210 ,0,0,35.,4.8,0.,4.8,0.,4.8,0.,4.8
1979-03-09 21:26:35.010 ,0,0,32.,4.8,0.,4.8,0.,4.8,0.,4.8
1979-03-09 21:26:39.810 ,0,0,27.,4.8,0.,4.8,0.,4.8,0.,4.8
1979-03-09 21:26:44.610 ,0,0,29.,4.8,0.,4.8,0.,4.8,0.,4.8
1979-03-09 21:26:49.410 ,0,0,20.,4.8,0.,4.8,0.,4.8,0.,4.8
1979-03-09 21:26:54.210 ,0,0,31.,4.8,0.,4.8,0.,4.8,0.,4.8
1979-03-09 21:26:59.010 ,0,0,30.,4.8,0.,4.8,0.,4.8,0.,4.8
1979-03-09 21:27:03.810 ,0,0,25.,4.8,0.,4.8,0.,4.8,0.,4.8
1979-03-09 21:27:08.610 ,1,0,21.,4.8,0.,4.8,0.,4.8,0.,4.8
1979-03-09 21:27:13.410 ,1,0,25.,4.8,0.,4.8,0.,4.8,0.,4.8
1979-03-09 21:27:18.210 ,1,0,35.,4.8,0.,4.8,0.,4.8,0.,4.8
1979-03-09 21:27:23.010 ,1,0,22.,4.8,0.,4.8,0.,4.8,0.,4.8
1979-03-09 21:27:27.810 ,1,0,33.,4.8,0.,4.8,0.,4.8,0.,4.8
1979-03-09 21:27:32.610 ,2,0,32.,4.8,0.,4.8,0.,4.8,0.,4.8
1979-03-09 21:27:37.410 ,2,0,35.,4.8,0.,4.8,0.,4.8,0.,4.8
1979-03-09 21:27:42.210 ,2,0,28.,4.8,0.,4.8,0.,4.8,0.,4.8
1979-03-09 21:27:47.010 ,2,0,23.,4.8,0.,4.8,0.,4.8,0.,4.8
1979-03-09 21:27:51.810 ,2,0,23.,4.8,0.,4.8,0.,4.8,0.,4.8
1979-03-09 21:27:56.610 ,3,0,30.,4.8,0.,4.8,0.,4.8,0.,4.8
1979-03-09 21:28:01.410 ,3,0,27.,4.8,0.,4.8,0.,4.8,0.,4.8
1979-03-09 21:28:06.210 ,3,0,25.,4.8,0.,4.8,0.,4.8,0.,4.8
1979-03-09 21:28:11.010 ,3,0,32.,4.8,0.,4.8,0.,4.8,0.,4.8
1979-03-09 21:28:15.810 ,3,0,31.,4.8,0.,4.8,0.,4.8,0.,4.8
1979-03-09 21:28:20.610 ,4,0,23.,4.8,0.,4.8,0.,4.8,0.,4.8
1979-03-09 21:28:25.410 ,4,0,26.,4.8,0.,4.8,0.,4.8,1.,4.8
1979-03-09 21:28:30.210 ,4,0,35.,4.8,0.,4.8,0.,4.8,0.,4.8
1979-03-09 21:28:35.010 ,4,0,37.,4.8,0.,4.8,0.,4.8,0.,4.8
1979-03-09 21:28:39.810 ,4,0,28.,4.8,0.,4.8,0.,4.8,0.,4.8
1979-03-09 21:28:44.610 ,5,0,28.,4.8,0.,4.8,0.,4.8,0.,4.8
1979-03-09 21:28:49.410 ,5,0,34.,4.8,0.,4.8,0.,4.8,0.,4.8
1979-03-09 21:28:54.210 ,5,0,19.,4.8,0.,4.8,0.,4.8,0.,4.8
1979-03-09 21:28:59.010 ,5,0,22.,4.8,0.,4.8,0.,4.8,0.,4.8
1979-03-09 21:29:03.810 ,5,0,21.,4.8,0.,4.8,0.,4.8,0.,4.8
1979-03-09 21:29:08.610 ,6,0,27.,4.8,0.,4.8,0.,4.8,0.,4.8
1979-03-09 21:29:13.410 ,6,0,30.,4.8,0.,4.8,0.,4.8,0.,4.8
1979-03-09 21:29:18.210 ,6,0,24.,4.8,0.,4.8,0.,4.8,0.,4.8
1979-03-09 21:29:23.010 ,6,0,24.,4.8,0.,4.8,0.,4.8,0.,4.8
1979-03-09 21:29:27.810 ,6,0,23.,4.8,0.,4.8,0.,4.8,0.,4.8
1979-03-09 21:29:32.610 ,7,0,31.,4.8,0.,4.8,0.,4.8,0.,4.8
1979-03-09 21:29:37.410 ,7,0,28.,4.8,0.,4.8,0.,4.8,0.,4.8
1979-03-09 21:29:42.210 ,7,0,17.,4.8,0.,4.8,0.,4.8,0.,4.8
1979-03-09 21:29:47.010 ,7,0,13.,4.8,0.,4.8,0.,4.8,0.,4.8
1979-03-09 21:29:51.810 ,7,0,18.,4.8,0.,4.8,0.,4.8,0.,4.8
1979-03-09 21:29:56.610 ,7,0,9.,4.8,0.,4.8,0.,4.8,0.,4.8
1979-03-09 21:30:01.410 ,7,0,17.,4.8,0.,4.8,0.,4.8,0.,4.8
1979-03-09 21:30:06.210 ,7,0,12.,4.8,0.,4.8,0.,4.8,0.,4.8
1979-03-09 21:30:11.010 ,7,0,17.,4.8,0.,4.8,0.,4.8,0.,4.8
1979-03-09 21:30:15.810 ,7,0,14.,4.8,0.,4.8,0.,4.8,0.,4.8
1979-03-09 21:30:20.610 ,6,0,18.,4.8,0.,4.8,0.,4.8,0.,4.8
1979-03-09 21:30:25.410 ,6,0,22.,4.8,0.,4.8,0.,4.8,0.,4.8
1979-03-09 21:30:30.210 ,6,0,18.,4.8,0.,4.8,0.,4.8,1.,4.8
1979-03-09 21:30:35.010 ,6,0,26.,4.8,0.,4.8,0.,4.8,0.,4.8
1979-03-09 21:30:39.810 ,6,0,21.,4.8,0.,4.8,0.,4.8,0.,4.8
1979-03-09 21:30:44.610 ,5,0,25.,4.8,0.,4.8,0.,4.8,0.,4.8
1979-03-09 21:30:49.410 ,5,0,18.,4.8,0.,4.8,0.,4.8,0.,4.8
1979-03-09 21:30:54.210 ,5,0,18.,4.8,0.,4.8,0.,4.8,0.,4.8
1979-03-09 21:30:59.010 ,5,0,32.,4.8,0.,4.8,0.,4.8,0.,4.8
1979-03-09 21:31:03.810 ,5,0,19.,4.8,0.,4.8,0.,4.8,0.,4.8
1979-03-09 21:31:08.610 ,4,0,26.,4.8,0.,4.8,0.,4.8,0.,4.8
1979-03-09 21:31:13.410 ,4,0,20.,4.8,0.,4.8,0.,4.8,0.,4.8
1979-03-09 21:31:18.210 ,4,0,22.,4.8,0.,4.8,0.,4.8,0.,4.8
1979-03-09 21:31:23.010 ,4,0,32.,4.8,0.,4.8,0.,4.8,0.,4.8
1979-03-09 21:31:27.810 ,4,0,16.,4.8,0.,4.8,0.,4.8,0.,4.8
1979-03-09 21:31:32.610 ,3,0,28.,4.8,0.,4.8,0.,4.8,0.,4.8
1979-03-09 21:31:37.410 ,3,0,23.,4.8,0.,4.8,0.,4.8,0.,4.8
1979-03-09 21:31:42.210 ,3,0,19.,4.8,0.,4.8,0.,4.8,0.,4.8
1979-03-09 21:31:47.010 ,3,0,20.,4.8,0.,4.8,0.,4.8,0.,4.8
1979-03-09 21:31:51.810 ,3,0,29.,4.8,0.,4.8,0.,4.8,0.,4.8
1979-03-09 21:31:56.610 ,2,0,25.,4.8,0.,4.8,0.,4.8,0.,4.8
1979-03-09 21:32:01.410 ,2,0,27.,4.8,0.,4.8,0.,4.8,0.,4.8
1979-03-09 21:32:06.210 ,2,0,24.,4.8,0.,4.8,0.,4.8,0.,4.8
1979-03-09 21:32:11.010 ,2,0,24.,4.8,0.,4.8,0.,4.8,0.,4.8
1979-03-09 21:32:15.810 ,2,0,24.,4.8,0.,4.8,0.,4.8,0.,4.8
1979-03-09 21:32:20.610 ,1,0,22.,4.8,0.,4.8,0.,4.8,0.,4.8
1979-03-09 21:32:25.410 ,1,0,23.,4.8,0.,4.8,0.,4.8,0.,4.8
1979-03-09 21:32:30.210 ,1,0,23.,4.8,0.,4.8,0.,4.8,0.,4.8
1979-03-09 21:32:35.010 ,1,0,24.,4.8,0.,4.8,0.,4.8,0.,4.8
1979-03-09 21:32:39.810 ,1,0,28.,4.8,0.,4.8,0.,4.8,0.,4.8
1979-03-09 21:32:44.610 ,0,0,28.,4.8,0.,4.8,0.,4.8,0.,4.8
1979-03-09 21:32:49.410 ,0,0,30.,4.8,0.,4.8,0.,4.8,0.,4.8
1979-03-09 21:32:54.210 ,0,0,22.,4.8,0.,4.8,0.,4.8,0.,4.8
1979-03-09 21:32:59.010 ,0,0,25.,4.8,0.,4.8,0.,4.8,0.,4.8